Lytton, British Columbia

12:38 PM PST on January 21, 2018 (GMT -0800)
Lytton

Weather History for CWLY - March, 2013

Change the Weather History Date:

Friday, March 1, 2013

  Actual Average Record
Temperature  
Mean Temperature 44 °F -  
Max Temperature 47 °F 48 °F 57 °F (2005)
Min Temperature 42 °F 32 °F 8 °F (2011)
Degree Days  
Heating Degree Days 20    
Moisture  
Dew Point 42 °F    
Average Humidity 91    
Maximum Humidity 100    
Minimum Humidity 81    
Precipitation  
Precipitation 0.16 in 0.04 in - ()
Sea Level Pressure  
Sea Level Pressure 30.13 in    
Wind  
Wind Speed 23 mph ()    
Max Wind Speed 33 mph    
Max Gust Speed 47 mph    
Visibility 8.5 miles    
Events      
Averages and records for this station are not official NWS values.
T = Trace of Precipitation, MM = Missing Value Source: Averaged Metar Reports

Daily Weather History Graph

Daily Weather History Graph

Search for Another Location

Airport or City:

Trip Planner

Search our weather history database for the weather conditions in past years. The results will help you decide how hot, cold, wet, or windy it might be!

Date:

Astronomy

Mar. 01, 2013 Rise Set
Actual Time 6:49 AM PST 5:48 PM PST
Civil Twilight 6:16 AM PST 6:21 PM PST
Nautical Twilight 5:39 AM PST 6:59 PM PST
Astronomical Twilight 5:01 AM PST 7:36 PM PST
Moon 11:02 PM PST (3/1) 8:09 AM PST (3/1)
Length of Visible Light 12h 05m
Length of Day
10h 59m
Waning Gibbous, 82% of the Moon is Illuminated
Mar 1
Waning Gibbous
Mar 4
Last Quarter
Mar 11
New
Mar 19
First Quarter
Mar 27
Full

Hourly Weather History & Observations

Time (PST) Temp. Windchill Dew Point Humidity Pressure Visibility Wind Dir Wind Speed Gust Speed Precip Events Conditions
12:00 AM 42.8 °F 32.3 °F 39.2 °F 87% 30.08 in 9.0 mi South 29.9 mph 47.2 mph N/A   Clear
12:20 AM 44.6 °F 35.5 °F 41.0 °F 87% 30.08 in 9.0 mi South 25.3 mph 39.1 mph N/A   Mostly Cloudy
1:00 AM 44 °F - 41 °F 84% 30.09 in 9 mi SSW 27.6 mph - -   Overcast
1:00 AM 44.6 °F 35.1 °F 41.0 °F 87% 30.09 in 9.0 mi SSW 27.6 mph 41.4 mph N/A   Overcast
1:31 AM 44.6 °F 35.9 °F 41.0 °F 87% 30.08 in 9.0 mi SSW 23.0 mph 44.9 mph N/A   Partly Cloudy
2:00 AM 44.6 °F 36.9 °F 41.0 °F 87% 30.11 in 9.0 mi SSW 18.4 mph 31.1 mph N/A   Scattered Clouds
3:00 AM 44.6 °F 34.9 °F 41.0 °F 87% 30.11 in 9.0 mi SSW 28.8 mph 40.3 mph N/A   Partly Cloudy
4:00 AM 44 °F - 40 °F 82% 30.11 in 9 mi SSW 21.9 mph - -  
4:00 AM 44.6 °F 36.4 °F 41.0 °F 87% 30.11 in 9.0 mi SSW 20.7 mph 41.4 mph N/A   Clear
5:00 AM 42.8 °F 32.3 °F 41.0 °F 93% 30.11 in 8.0 mi South 29.9 mph 42.6 mph N/A   Overcast
5:01 AM 42.8 °F 32.3 °F 41.0 °F 93% 30.08 in 8.0 mi South 29.9 mph 43.7 mph N/A   Overcast
5:11 AM 42.8 °F 32.7 °F 41.0 °F 93% 30.09 in 9.0 mi South 27.6 mph 36.8 mph N/A   Overcast
5:49 AM 42.8 °F 32.3 °F 41.0 °F 93% 30.10 in 9.0 mi SSW 29.9 mph 41.4 mph N/A   Overcast
5:52 AM 42.8 °F 32.3 °F 41.0 °F 93% 30.10 in 9.0 mi SSW 29.9 mph 41.4 mph N/A   Overcast
6:00 AM 42.8 °F 31.9 °F 41.0 °F 93% 30.13 in 8.0 mi SSW 32.2 mph 42.6 mph N/A   Overcast
7:00 AM 42 °F - 41 °F 94% 30.12 in 6 mi SSW 31.1 mph - -   Overcast
7:00 AM 42.8 °F 31.8 °F 41.0 °F 93% 30.12 in 6.0 mi SSW 33.4 mph 40.3 mph N/A   Overcast
7:50 AM 42.8 °F 33.8 °F 41.0 °F 93% 30.08 in 9.0 mi SSW 21.9 mph 38.0 mph N/A   Mostly Cloudy
8:00 AM 42.8 °F 33.5 °F 41.0 °F 93% 30.09 in 9.0 mi South 23.0 mph 34.5 mph N/A   Partly Cloudy
8:46 AM 42.8 °F 32.9 °F 41.0 °F 93% 30.09 in 9.0 mi South 26.5 mph 41.4 mph N/A   Mostly Cloudy
8:56 AM 42.8 °F 32.9 °F 41.0 °F 93% 30.10 in 9.0 mi South 26.5 mph 35.7 mph N/A   Overcast
9:00 AM 42.8 °F 32.9 °F 41.0 °F 93% 30.12 in 9.0 mi SSW 26.5 mph 39.1 mph N/A   Overcast
9:29 AM 42.8 °F 33.3 °F 42.8 °F 100% 30.10 in 9.0 mi SSW 24.2 mph 36.8 mph N/A   Overcast
9:36 AM 44.6 °F 35.3 °F 42.8 °F 93% 30.11 in 9.0 mi South 26.5 mph 36.8 mph N/A   Overcast
9:46 AM 44.6 °F 36.1 °F 42.8 °F 93% 30.11 in 9.0 mi South 21.9 mph 38.0 mph N/A   Mostly Cloudy
9:57 AM 44.6 °F 35.3 °F 42.8 °F 93% 30.12 in 9.0 mi South 26.5 mph 39.1 mph N/A   Mostly Cloudy
10:00 AM 44 °F - 42 °F 89% 30.15 in 9 mi South 26.5 mph - -  
10:00 AM 44.6 °F 34.9 °F 42.8 °F 93% 30.15 in 9.0 mi South 28.8 mph 39.1 mph N/A   Mostly Cloudy
10:16 AM 44.6 °F 35.3 °F 42.8 °F 93% 30.11 in 6.0 mi SSW 26.5 mph 35.7 mph N/A   Overcast
10:56 AM 44.6 °F 35.9 °F 42.8 °F 93% 30.10 in 8.0 mi SSW 23.0 mph 40.3 mph N/A   Overcast
11:00 AM 44.6 °F 35.5 °F 42.8 °F 93% 30.13 in 8.0 mi South 25.3 mph 39.1 mph N/A   Overcast
11:04 AM 44.6 °F 35.5 °F 42.8 °F 93% 30.10 in 8.0 mi South 25.3 mph 39.1 mph N/A   Overcast
11:37 AM 44.6 °F 35.9 °F 42.8 °F 93% 30.10 in 9.0 mi South 23.0 mph 42.6 mph N/A   Overcast
12:00 PM 44.6 °F 37.2 °F 44.6 °F 100% 30.15 in 9.0 mi South 17.3 mph 29.9 mph N/A   Overcast
12:26 PM 44.6 °F 35.3 °F 44.6 °F 100% 30.11 in 6.0 mi South 26.5 mph 34.5 mph N/A   Overcast
12:36 PM 44.6 °F 35.9 °F 44.6 °F 100% 30.10 in 6.0 mi SSW 23.0 mph 38.0 mph N/A   Overcast
12:38 PM 46.4 °F 38.5 °F 44.6 °F 93% 30.10 in 7.0 mi South 21.9 mph 38.0 mph N/A   Overcast
1:00 PM 46 °F - 45 °F 93% 30.16 in 9 mi South 17.3 mph - -  
1:00 PM 46.4 °F 40.4 °F 44.6 °F 93% 30.16 in 9.0 mi South 13.8 mph 31.1 mph N/A   Mostly Cloudy
1:43 PM 46.4 °F 39.5 °F 44.6 °F 93% 30.15 in 9.0 mi SSW 17.3 mph 32.2 mph N/A   Overcast
2:00 PM 46.4 °F 37.5 °F 44.6 °F 93% 30.16 in 8.0 mi SSW 27.6 mph 34.5 mph N/A   Overcast
2:20 PM 46.4 °F 40.4 °F 44.6 °F 93% 30.15 in 8.0 mi South 13.8 mph 33.4 mph N/A   Overcast
2:40 PM 46.4 °F 38.7 °F 44.6 °F 93% 30.14 in 9.0 mi SSW 20.7 mph 32.2 mph N/A   Overcast
3:00 PM 46.4 °F 39.8 °F 44.6 °F 93% 30.16 in 9.0 mi SSW 16.1 mph 27.6 mph N/A   Mostly Cloudy
4:00 PM 46 °F - 44 °F 91% 30.16 in 9 mi South 20.7 mph - -  
4:00 PM 46.4 °F 38.7 °F 44.6 °F 93% 30.16 in 9.0 mi South 20.7 mph 32.2 mph N/A   Partly Cloudy
5:00 PM 46.4 °F 38.7 °F 44.6 °F 93% 30.16 in 9.0 mi SSW 20.7 mph 36.8 mph N/A   Mostly Cloudy
5:15 PM 46.4 °F 39.0 °F 44.6 °F 93% 30.14 in 9.0 mi SSW 19.6 mph 29.9 mph N/A   Overcast
5:41 PM 44.6 °F 36.9 °F 44.6 °F 100% 30.13 in 9.0 mi SSW 18.4 mph 32.2 mph N/A   Mostly Cloudy
6:00 PM 46.4 °F 37.4 °F 42.8 °F 87% 30.15 in 9.0 mi SSW 28.8 mph 35.7 mph N/A   Partly Cloudy
6:27 PM 46.4 °F 38.5 °F 42.8 °F 87% 30.13 in 9.0 mi SSW 21.9 mph 33.4 mph N/A   Overcast
6:42 PM 46.4 °F 38.3 °F 42.8 °F 87% 30.13 in 9.0 mi SSW 23.0 mph 33.4 mph N/A   Overcast
6:53 PM 46.4 °F 39.2 °F 42.8 °F 87% 30.14 in 7.0 mi SSW 18.4 mph 33.4 mph N/A   Overcast
7:00 PM 46 °F - 43 °F 87% 30.16 in 7 mi SSW 20.7 mph - -   Overcast
7:00 PM 46.4 °F 39.2 °F 42.8 °F 87% 30.16 in 7.0 mi SSW 18.4 mph 36.8 mph N/A   Overcast
7:33 PM 46.4 °F 38.5 °F 42.8 °F 87% 30.14 in 8.0 mi SSW 21.9 mph 35.7 mph N/A   Overcast
7:44 PM 44.6 °F 37.2 °F 42.8 °F 93% 30.14 in 7.0 mi South 17.3 mph 36.8 mph N/A   Overcast
8:00 PM 46.4 °F 38.5 °F 42.8 °F 87% 30.16 in 9.0 mi South 21.9 mph 29.9 mph N/A   Overcast
8:33 PM 44.6 °F 35.7 °F 42.8 °F 93% 30.14 in 9.0 mi SSW 24.2 mph 36.8 mph N/A   Mostly Cloudy
8:44 PM 46.4 °F 39.0 °F 42.8 °F 87% 30.14 in 9.0 mi SSW 19.6 mph 34.5 mph N/A   Overcast
9:00 PM 46.4 °F 38.7 °F 42.8 °F 87% 30.16 in 9.0 mi SSW 20.7 mph 29.9 mph N/A   Mostly Cloudy
9:07 PM 46.4 °F 39.0 °F 42.8 °F 87% 30.14 in 9.0 mi SSW 19.6 mph 31.1 mph N/A   Mostly Cloudy
10:00 PM 46.4 °F 41.9 °F 42.8 °F 87% 30.17 in 9.0 mi South 9.2 mph 27.6 mph N/A   Clear
10:10 PM 46.4 °F 40.1 °F 41.0 °F 81% 30.14 in 9.0 mi SSW 15.0 mph 24.2 mph N/A   Clear
10:42 PM 46.4 °F 39.2 °F 41.0 °F 81% 30.14 in 9.0 mi South 18.4 mph 27.6 mph N/A   Clear
11:00 PM 46.4 °F 39.5 °F 42.8 °F 87% 30.16 in 9.0 mi SSW 17.3 mph 27.6 mph N/A   Clear
11:17 PM 46.4 °F 39.2 °F 41.0 °F 81% 30.13 in 9.0 mi SSW 18.4 mph 28.8 mph N/A   Clear
11:27 PM 46.4 °F 39.8 °F 41.0 °F 81% 30.13 in 9.0 mi SSW 16.1 mph 23.0 mph N/A   Clear